RH
42 19 17 14 14 12 13 13 12 12 14 16 20 22 19 22 21 24 41 49 56 49 43 59 93 92 92 88 87 88 87 86 86 84 85 85 86 86 83 82 79 77 74 68 68 69 70 73 74
18 20 17 12 14 12 11 12 14 12 12 18 20 22 26 26 29 32 37 49 59 54 48 48 94 92 91 88 86 88 86 86 85 86 86 86 85 85 83 80 78 76 73 67 67 69 71 73 76
18 17 13 12 12 11 11 12 12 12 12 18 18 23 23 22 33 32 44 47 51 52 53 49 92 93 92 90 87 87 87 86 86 87 86 86 85 83 81 79 77 75 73 68 68 70 72 76 80
12 11 12 14 13 12 12 11 12 14 16 20 21 23 22 22 30 36 45 46 49 54 64 62 95 93 91 90 88 88 87 86 87 87 86 84 83 81 80 79 77 76 74 69 69 72 75 81 81
12 11 11 11 12 12 12 12 13 13 16 21 24 20 24 28 27 43 51 49 54 55 79 95 96 92 90 90 89 88 88 88 87 86 84 82 81 80 80 79 78 77 75 74 73 75 78 82 82
12 11 11 10 12 12 11 12 14 17 17 18 27 26 22 35 40 38 56 55 58 60 79 82 89 94 92 90 89 89 89 89 87 86 83 82 81 82 81 81 79 80 80 79 81 81 82 82 81
12 11 10 10 11 13 12 13 18 13 13 18 22 27 18 32 41 54 58 62 69 74 76 79 94 96 97 88 92 92 90 90 88 85 83 83 84 84 83 81 83 84 84 86 83 84 84 83 82
11 11 12 10 9 12 11 13 15 15 14 30 27 22 22 30 51 56 59 68 85 75 78 86 89 97 98 92 95 92 90 92 89 85 85 86 85 86 85 86 84 84 87 86 83 84 84 83 83
13 13 12 10 11 10 11 15 14 18 20 24 26 26 29 43 48 49 48 61 78 86 79 88 87 86 93 82 80 84 95 92 89 87 89 87 66 69 70 71 86 86 88 85 84 85 84 85 85
13 13 10 9 9 10 12 15 14 17 17 22 23 25 36 46 46 47 52 56 60 73 91 85 87 83 82 78 71 77 94 85 80 81 74 54 67 62 52 74 91 91 89 85 85 86 87 70 44
13 14 9 11 10 11 12 12 12 15 15 14 14 16 28 46 51 54 56 58 59 61 74 87 81 91 87 85 79 94 93 90 90 84 71 67 59 61 59 58 63 69 78 58 60 64 42 43 40
18 14 11 10 10 13 13 11 14 13 15 12 22 23 36 45 47 51 60 61 60 67 69 80 84 78 85 87 94 93 93 90 94 86 76 73 67 65 60 46 49 56 51 54 50 46 46 46 42
20 13 12 11 12 12 13 15 14 13 11 12 23 43 42 43 47 58 68 74 66 71 75 76 77 80 89 82 94 96 93 98 93 89 81 72 65 69 56 48 46 46 44 48 49 46 48 47 44
12 14 12 11 12 13 16 14 12 14 11 23 38 41 46 49 52 55 54 63 86 79 75 75 75 80 83 88 86 97 95 94 94 93 88 79 74 71 59 49 44 45 45 44 45 46 41 39 40
16 18 13 13 13 13 12 15 13 12 19 26 36 42 45 45 48 49 49 59 68 83 78 80 86 78 86 87 92 93 97 93 91 94 88 85 77 71 64 54 44 41 43 50 46 45 38 33 30
20 18 20 14 13 13 17 14 15 17 22 19 25 36 45 48 48 49 50 60 72 88 90 89 84 84 86 94 97 95 96 92 90 94 94 86 78 68 62 48 46 41 44 44 43 40 36 35 31
18 20 17 17 14 12 19 15 15 20 21 21 21 29 36 44 53 52 53 63 77 75 88 92 84 89 96 97 97 94 95 94 90 93 96 90 79 68 51 50 47 49 44 43 42 40 41 40 34
22 21 20 19 14 19 16 18 14 13 16 18 19 26 33 39 42 48 53 65 75 81 86 92 85 89 94 98 98 98 96 97 96 94 95 93 81 70 61 56 55 47 42 44 41 45 41 39 36
17 20 19 15 16 21 18 14 12 12 13 16 19 26 31 37 39 46 57 66 83 83 85 93 92 90 92 94 98 97 98 97 98 96 96 94 79 66 65 52 57 49 47 47 50 47 49 44 42
22 23 20 16 15 20 18 15 13 13 14 15 16 22 28 34 43 49 57 66 81 80 81 90 90 90 87 88 96 97 95 96 96 96 96 93 81 66 62 56 59 54 48 54 55 53 49 49 52
24 24 22 21 17 18 20 19 13 11 15 18 22 22 24 30 40 48 60 76 81 83 75 80 80 91 87 89 92 95 96 96 95 96 96 92 85 68 64 53 54 55 51 54 57 56 56 53 56
27 19 22 22 21 24 20 20 13 14 16 14 14 23 28 30 38 42 51 65 83 79 68 70 71 86 84 83 82 88 89 85 80 86 81 86 87 83 71 58 55 60 56 59 60 54 56 53 54
26 22 20 25 24 23 22 24 17 15 20 16 14 15 27 33 38 42 45 54 72 75 76 76 70 85 82 78 82 85 83 79 92 84 69 78 81 79 80 78 77 66 61 66 65 64 63 54 52
23 29 29 29 30 38 29 23 17 15 18 15 15 19 27 33 38 40 41 44 55 70 72 76 74 79 80 71 69 76 73 79 87 88 81 69 75 68 71 72 75 73 62 61 63 65 69 67 64
28 35 41 46 44 40 22 27 21 18 17 16 16 15 26 33 39 42 42 44 50 64 69 72 73 78 74 69 69 76 69 69 75 73 73 57 60 71 76 73 80 71 64 59 61 66 69 69 70
33 35 38 39 37 31 27 31 22 18 15 15 19 19 23 33 39 41 40 42 48 59 68 71 70 72 74 76 74 64 58 67 63 58 54 62 54 54 57 59 58 68 69 65 66 70 65 67 71
26 36 26 32 28 39 28 27 24 19 19 18 17 16 21 29 36 38 39 43 44 55 62 68 65 68 69 70 70 67 59 60 58 56 55 51 51 48 56 58 59 57 58 59 63 62 64 66 71
20 18 37 34 44 39 24 25 24 21 19 15 17 16 18 24 32 36 38 44 43 49 55 66 58 58 61 64 64 61 58 56 54 55 56 55 51 50 50 54 57 56 56 57 60 61 60 64 66
21 26 28 25 30 38 36 24 20 20 18 17 17 17 19 25 30 34 36 40 44 48 52 67 67 58 56 56 61 63 60 59 59 56 55 55 56 54 55 54 55 56 56 55 59 61 60 62 65
35 28 23 32 31 32 34 28 18 19 20 18 19 20 19 24 28 31 36 39 43 48 51 61 76 68 61 56 56 59 60 59 60 61 56 56 55 56 56 56 54 52 52 55 59 66 65 72 73
Wind_Speed
8 8 4 6 7 7 3 5 3 5 4 1 3 7 10 12 9 10 4 2 2 7 11 15 8 9 13 21 24 26 22 25 25 22 22 23 22 26 21 21 23 22 22 23 23 24 23 22 21
7 5 6 3 8 8 6 2 5 2 3 5 7 8 9 10 6 6 3 4 5 7 11 14 13 13 15 19 22 25 25 26 25 23 23 22 22 23 26 22 23 22 23 24 23 24 22 21 20
5 6 6 5 4 5 2 3 2 4 5 8 5 5 7 4 3 3 2 4 6 7 11 15 15 14 15 20 23 25 27 26 26 25 25 24 24 24 25 23 23 23 23 25 22 23 22 21 19
5 6 5 10 8 3 4 1 2 5 1 4 5 10 4 7 2 1 2 1 4 5 9 14 14 16 18 22 23 25 25 26 26 25 26 26 25 25 26 23 23 23 22 24 22 22 21 18 19
5 4 7 11 8 2 4 2 3 6 3 5 6 13 8 3 7 3 2 1 4 6 1 8 7 18 21 23 26 25 26 26 27 26 26 26 25 26 26 24 23 23 22 21 21 21 20 18 19
6 5 8 10 11 6 4 2 5 7 5 5 6 13 14 2 6 3 2 4 4 5 4 3 13 10 17 22 25 24 25 26 27 27 27 27 25 25 25 24 23 22 21 21 19 19 19 17 19
11 7 11 10 8 8 6 1 7 10 10 11 7 9 8 5 3 1 3 3 0 3 3 7 9 6 18 16 16 26 25 26 26 25 25 27 26 25 24 23 21 21 20 20 19 18 18 17 18
7 7 9 10 10 14 6 3 6 10 11 4 3 9 12 5 4 2 2 6 5 2 6 9 8 12 8 8 3 6 18 23 24 22 24 25 24 24 20 20 21 21 21 20 19 18 17 17 16
4 9 11 12 12 12 6 5 2 4 10 7 8 13 7 1 2 4 2 6 10 5 2 6 11 8 9 11 8 6 6 20 20 19 18 20 15 20 22 19 19 20 20 20 19 18 17 16 14
12 12 13 6 9 9 9 7 11 7 11 13 14 13 9 8 6 6 5 2 3 6 10 6 8 11 13 9 11 11 2 11 13 15 20 16 17 16 17 16 18 19 20 20 19 18 17 16 11
13 17 12 9 9 10 14 13 9 13 17 16 14 15 5 10 7 6 5 5 4 3 7 8 8 7 8 7 7 4 7 8 10 15 16 13 14 13 12 11 11 13 18 13 15 15 12 12 9
14 17 17 13 12 12 15 16 15 17 21 18 13 9 5 9 6 4 5 7 6 4 4 11 10 8 10 5 6 8 8 10 9 13 13 13 10 13 12 11 14 14 12 16 14 11 10 10 8
17 18 15 16 15 15 14 19 20 23 21 18 11 7 8 7 2 1 1 4 7 5 5 7 8 8 6 10 7 8 11 8 11 13 14 12 13 11 12 12 12 13 13 14 13 11 10 10 9
7 12 16 15 15 16 16 22 19 23 13 9 10 12 9 7 3 2 4 5 3 5 5 5 6 7 8 10 12 7 10 11 10 11 12 12 10 11 12 13 13 13 12 13 12 11 11 9 9
12 16 17 18 17 19 15 22 22 21 5 10 10 10 9 7 5 4 3 4 4 6 6 6 5 6 9 11 10 9 11 13 12 12 14 13 13 13 12 11 12 12 12 14 11 12 10 9 8
11 14 15 5 8 10 11 15 8 4 6 12 10 10 9 8 6 3 2 3 3 5 5 6 5 5 5 4 10 13 13 14 13 10 11 14 13 13 14 12 11 12 11 11 10 10 10 9 8
15 15 15 11 10 10 13 15 6 6 8 12 10 11 10 8 7 6 4 4 4 4 5 5 6 5 1 4 3 17 19 15 13 12 9 13 12 12 14 11 11 13 10 10 10 9 10 10 9
16 18 15 14 5 10 14 17 16 9 7 13 10 10 11 10 9 7 5 5 4 4 5 6 6 7 4 4 5 7 13 11 11 12 10 13 10 13 11 9 11 11 10 10 10 10 9 9 7
14 14 15 12 1 7 13 17 16 16 10 12 10 11 12 10 7 7 7 6 6 5 7 7 6 7 4 5 2 5 7 11 8 9 12 12 12 13 11 11 12 11 11 10 10 8 11 7 5
21 19 17 16 13 11 17 18 14 16 15 10 9 12 12 11 11 10 9 8 7 8 8 8 8 7 5 5 4 4 5 6 7 8 8 9 11 14 13 13 11 11 10 11 11 9 8 6 7
21 21 18 19 14 13 19 20 20 17 11 9 9 10 10 12 13 13 12 11 9 9 9 9 10 9 7 9 8 6 7 6 5 6 7 8 10 14 13 15 12 12 11 10 12 11 12 7 8
21 18 20 17 15 12 3 12 13 10 16 17 14 11 12 12 13 13 14 14 12 10 9 10 11 11 9 11 11 13 8 11 7 8 8 9 11 11 11 14 13 11 9 10 11 10 9 9 8
16 15 17 16 16 17 18 12 10 10 12 12 13 12 12 12 14 15 15 15 14 12 10 10 11 12 12 12 10 9 9 7 3 4 14 12 11 12 12 11 11 10 9 9 11 12 12 10 9
7 13 11 8 10 14 17 14 10 13 10 6 4 1 10 13 15 15 14 15 15 14 12 12 13 13 13 14 15 12 14 11 8 7 8 11 9 10 12 9 7 7 10 10 11 12 13 12 11
14 10 7 9 8 8 7 13 15 7 10 11 11 8 8 12 15 16 17 16 16 16 14 13 15 14 14 14 14 13 13 13 11 12 9 13 10 8 10 12 12 11 10 12 12 13 14 13 13
20 17 8 9 10 7 9 9 12 9 11 9 7 5 7 12 15 18 18 17 17 18 17 15 15 15 16 14 13 14 16 9 9 14 11 9 10 10 11 13 13 10 10 13 14 11 10 12 12
13 18 19 18 13 7 7 7 9 9 10 10 11 4 9 12 15 19 19 17 17 18 18 17 17 16 16 18 15 15 14 15 14 15 13 11 12 10 12 12 14 15 16 17 15 11 14 13 14
20 4 9 12 9 15 12 13 7 9 11 9 8 11 6 11 15 17 18 19 16 17 17 17 17 19 18 19 18 16 17 16 16 15 16 15 13 13 13 15 15 16 16 15 15 14 15 15 13
13 16 13 9 13 12 11 8 8 13 11 9 8 6 4 9 14 16 17 18 17 16 17 17 17 19 18 19 19 18 18 19 18 17 17 16 15 16 16 16 17 18 18 18 17 18 17 17 17
10 8 18 14 16 10 14 13 1 12 9 6 10 5 0 5 11 13 15 17 18 18 19 19 18 18 18 18 18 19 18 18 19 18 19 17 18 17 17 17 19 19 19 19 18 16 15 17 17
Wind_Direction
184 205 224 233 234 244 165 154 328 246 229 280 313 276 312 313 296 322 61 177 194 213 199 175 181 192 171 166 161 156 162 151 149 152 142 138 142 136 134 132 123 127 126 125 122 118 118 116 114
174 191 222 255 254 230 130 108 224 285 298 308 283 256 256 278 272 271 266 157 199 225 202 195 165 179 177 170 163 157 158 152 150 146 137 140 142 138 132 133 127 130 129 128 127 122 122 121 116
196 239 258 249 245 262 252 158 293 332 274 249 270 260 299 269 241 275 72 144 215 224 212 210 160 184 186 170 169 161 157 152 149 147 141 143 143 135 131 132 130 135 132 130 128 125 123 120 115
203 194 204 246 217 187 252 210 340 285 212 235 284 268 222 270 256 280 88 247 230 240 230 205 168 183 181 170 169 162 156 151 151 146 144 143 143 136 133 133 138 135 132 129 132 126 123 118 116
215 252 240 241 229 244 235 315 327 296 291 254 220 269 261 221 250 203 319 345 272 241 148 340 222 197 184 173 165 166 157 153 150 147 145 143 143 138 137 140 140 134 132 132 132 128 127 125 120
204 280 243 236 203 202 246 266 296 273 279 266 250 268 270 113 233 209 338 332 281 279 42 169 87 274 255 179 165 164 158 153 150 151 148 143 145 141 140 140 140 135 134 131 128 127 127 126 121
256 236 268 276 246 224 221 178 260 285 277 261 244 262 281 216 195 220 34 41 16 70 154 145 107 225 266 209 179 168 159 153 149 150 150 146 147 145 144 144 139 129 128 131 131 132 131 131 126
259 263 254 238 237 234 174 266 274 281 293 28 234 259 275 75 169 210 147 112 95 138 143 161 193 157 257 240 285 339 156 147 145 149 148 148 147 142 144 133 128 129 129 136 137 135 133 129 129
238 242 248 246 235 236 170 275 321 301 268 227 227 269 322 191 207 247 219 155 141 135 197 166 190 164 206 230 214 245 291 137 136 140 143 143 150 148 146 140 133 132 139 141 137 135 132 129 132
223 236 252 277 253 248 270 254 294 266 257 260 252 256 235 240 247 266 286 262 203 164 152 196 184 203 200 229 202 201 221 160 149 144 154 163 155 148 151 134 125 133 142 138 138 134 135 160 148
217 249 259 237 253 239 279 277 278 273 277 278 306 307 232 231 238 266 282 289 299 296 155 168 199 168 203 210 210 166 181 177 160 153 162 156 159 153 142 147 139 142 147 151 146 144 167 153 155
244 242 263 250 265 256 261 274 269 271 274 303 300 293 247 223 237 267 284 294 294 275 274 160 178 198 188 193 177 165 164 181 163 165 174 164 157 150 146 160 151 151 161 155 158 169 157 161 157
240 255 256 254 257 252 268 265 271 276 280 285 270 255 248 241 222 203 284 279 273 262 184 196 163 177 187 188 183 166 174 175 169 169 169 170 158 155 159 157 154 154 159 169 171 165 165 158 159
261 259 260 259 251 249 256 266 264 264 279 278 245 244 230 220 188 245 231 239 206 247 190 215 194 174 186 189 194 186 183 173 172 164 163 169 162 156 155 155 160 155 167 167 171 163 163 155 161
257 260 257 250 254 257 269 263 248 262 259 267 246 241 233 224 207 217 263 226 193 215 220 228 190 203 201 209 212 193 184 181 175 163 165 168 161 160 149 159 165 162 169 161 165 163 156 155 178
242 241 256 232 244 222 226 269 183 195 228 282 251 234 236 227 239 219 202 202 171 187 211 196 190 194 210 261 218 203 186 181 171 163 159 160 161 173 151 165 168 158 156 164 158 168 155 163 181
233 256 238 255 211 247 222 261 144 192 271 284 269 244 233 219 220 234 184 189 173 204 189 189 180 148 122 343 265 197 171 170 168 163 156 150 165 167 159 165 166 164 158 162 164 170 168 164 186
232 232 252 261 201 231 235 252 268 255 261 276 271 243 236 227 214 207 191 182 169 176 172 166 183 141 115 56 43 134 136 141 142 149 153 145 166 176 156 152 162 170 161 163 171 169 178 175 177
273 263 252 260 301 260 254 269 270 273 267 264 251 239 237 228 200 188 181 177 163 183 173 162 163 145 133 95 42 104 110 124 115 119 128 147 170 175 156 168 166 172 171 173 167 177 178 161 163
246 249 252 261 265 273 270 274 271 271 269 272 262 235 236 213 187 189 186 178 185 190 182 165 158 167 152 111 83 56 88 81 100 116 128 147 166 167 167 167 173 177 167 173 178 178 189 141 174
239 244 250 254 263 259 270 272 262 251 241 230 246 258 235 221 190 188 179 187 188 192 192 185 165 161 164 131 110 91 81 95 115 144 155 157 161 173 174 178 180 175 181 184 181 184 198 174 189
244 232 251 264 257 261 154 280 287 248 262 259 253 226 235 217 196 183 182 181 188 197 193 184 169 168 173 160 149 151 156 158 173 163 164 162 168 167 173 172 177 179 189 187 187 194 206 203 193
247 262 252 252 256 257 250 254 267 248 255 252 248 236 222 211 198 182 191 172 181 189 187 182 173 165 171 182 160 156 154 153 121 163 159 169 174 173 159 171 163 184 199 195 197 199 211 215 219
222 234 234 237 248 243 241 240 253 243 243 247 222 260 201 204 198 181 184 169 171 181 182 180 179 175 176 186 174 177 174 155 154 161 174 176 171 173 173 156 160 187 210 212 216 216 216 223 226
228 207 211 219 210 244 186 214 242 231 258 262 285 264 199 200 195 187 183 178 173 179 187 184 183 178 182 187 184 183 172 172 169 178 184 179 178 177 163 172 185 204 216 229 229 223 226 224 225
201 213 222 227 234 239 174 223 234 242 260 250 257 254 192 196 195 196 186 186 176 180 186 190 188 186 184 183 188 194 188 184 186 188 187 186 185 191 189 194 199 207 212 230 237 236 234 234 236
192 217 236 264 264 268 233 212 272 239 240 237 253 238 220 205 195 198 188 193 181 181 184 194 192 193 194 194 192 197 200 198 201 199 202 196 198 198 199 201 212 217 224 233 240 240 242 239 243
246 216 192 222 243 243 234 239 249 209 234 238 229 247 222 201 194 195 191 189 191 180 182 194 199 196 194 197 197 199 204 207 212 210 210 211 214 219 218 217 219 223 226 232 238 243 243 247 249
204 234 243 276 233 257 263 258 178 240 254 276 314 258 249 207 194 193 193 184 193 183 182 187 205 201 199 198 199 203 203 208 212 214 214 214 215 215 219 225 227 230 232 235 238 242 245 246 250
308 267 226 235 237 228 255 259 177 230 265 272 311 282 299 204 188 185 192 187 189 194 184 186 196 206 205 202 201 203 206 207 210 215 218 218 222 225 228 228 230 231 233 235 238 241 240 244 250